Location: Chaves
(41.7330°N, 7.4670°W)
Time: 19:35:11
(UTC+01:00)

ISS - Visible Passes

Search period start: 21 October 2019 00:00
Search period end: 30 October 2019 23:00
Orbit: 411 x 421 km, 51.6° (Epoch: 21 October)

Date Brightness Start Highest point End Pass type
(mag) Time Alt. Az. Time Alt. Az. Time Alt. Az.
22 Oct -1.0 07:22:19 10° S 07:24:56 21° SE 07:27:32 10° E visible
23 Oct -0.6 06:35:05 10° SSE 06:36:33 12° SE 06:38:01 10° ESE visible
24 Oct -3.1 07:20:58 10° SW 07:24:16 59° SE 07:27:36 10° ENE visible
25 Oct -2.1 06:32:42 10° SSW 06:35:46 33° SE 06:38:50 10° ENE visible
26 Oct -1.4 05:46:44 19° SSE 05:47:18 19° SE 05:49:48 10° E visible
26 Oct -3.5 07:20:29 10° WSW 07:23:47 52° NNW 07:27:05 10° NE visible
27 Oct -3.9 05:33:42 32° WSW 05:35:08 87° NW 05:38:31 10° NE visible
28 Oct -2.2 04:47:32 37° E 04:47:32 37° E 04:49:50 10° ENE visible
28 Oct -2.5 06:20:31 10° W 06:23:26 27° NNW 06:26:21 10° NE visible
29 Oct -3.1 05:34:09 34° NW 05:34:40 37° NNW 05:37:50 10° NE visible
30 Oct -1.7 04:47:44 24° NE 04:47:44 24° NE 04:49:16 10° NE visible
30 Oct -1.8 06:20:48 10° WNW 06:23:13 18° NNW 06:25:38 10° NNE visible
